DELTA 1 DEB, 7091

Orbit data source: Space-Track

DELTA 1 DEB, 7091 is space debris in LEO originally from a launch on Tue, 06 Nov 1973 UTC launched from the Air Force Western Test Range (AFWTR). Debris objects in space refer to the collection of defunct objects orbiting the Earth. Examples of debris include non-operational satellites, rocket bodies, and fragments generated from explosions, collisions, or faulty payload assembly.

Loading next visibility...
Identifier
7091, 1973-086CK
Orbit
LEO
Country
Flag of USUS
Related business
Manufacturer
Unknown
Mission
Spacecraft
Bus & Motor
Unknown
Mass
Unknown
Launch date (UTC)
1973-11-06 (52 years ago)
Launch vehicle
Unknown
Launch site
Air Force Western Test Range (AFWTR)
Object type
Payload
Rocket body
Debris
Shape & HBR
Unknown shape, 0.6 m
Radar Cross Section
Medium (>0.1 m² and <1 m²)

Expand to show TLE details & history
Last TLE update: 10 hours ago

TLE from 10 hours ago
0 DELTA 1 DEB
1 07091U 73086CK  25292.87495262 -.00000562  00000-0 -60696-2 0  9998
2 07091 102.1253  64.0928 0276158 192.3285 321.9616 11.96323468267388
Epoch: 2025-10-19T20:59Z
TLE epoch observation values (Epoch: 2025-10-19T20:59:55.906Z)
Latitude
27.08236°
Longitude
-93.1994°
Altitude
1,527.054 km
Speed
7.18 km/s
True Right ascension
16h 41m 28s
True Declination
26° 57' 24"
Sunlit
Object was in daylight at epoch
Visualization orbit readout
Latitude
Unknown
Longitude
Unknown
Altitude
Unknown
Speed
Unknown
Apparent Right ascension
Unknown
Apparent Declination
Unknown
Sunlit
N/A
Visualization observer readout
Local Sidereal Time
01:42:50
Azimuth
Unknown
Elevation
Unknown
Doppler factor
Unknown
Orbital elements
Apogee altitude
1,917.946 km
Perigee altitude
1,472.054 km
Semi-major axis
8,073.137 km
Eccentricity
0.02762
Inclination
102.1253°
RAAN
64.0928°
Arg. of periapsis
192.3285°
True anomaly
319.95762°
Mean anomaly
321.9616°
Eccentric anomaly
320.9651°
Mean motion
2.99212 °/min
Orbital period
120.32 mins
BSTAR
-0.0060696
Loading maneuver chart data...
Computing Atmospheric mass density...
Loading historical data...
Loading historical data...
Loading historical data...
Loading historical data...
Loading historical data...
Loading historical data...
Loading historical data...

Documentation

Showing up to 5 results
|